Epoch 2009 Mar. 30.0 TT = JDT 2454920.5 T 2009 Apr. 16.50940 TT MPC q 1.1287642 (2000.0) P Q z +0.0019608 Peri. 175.44830 +0.52942518 -0.22902809 +/-0.0000569 Node 120.63586 -0.80524527 +0.16737631 e 0.9977868 Incl. 108.31079 -0.26700006 -0.95892195
m1 = 7.5 + 5 logΔ + 10.0 log r